Location: Charlottetown
(46.2330°N, 63.1330°W)
Time: 17:42:22
(UTC-04:00)

Daily predictions for brighter satellites

Satellite Brightness Start Highest point End
(mag) Time Altitude Azimuth Time Altitude Azimuth Time Altitude Azimuth
Cosmos 1455 Rocket 3.4 16:56:43 10° N 17:00:57 43° ENE 17:05:07 10° SSE
Cosmos 158 Rocket 4.1 16:57:08 10° NNW 17:02:06 48° ENE 17:06:53 10° SE
USA 215 3.3 16:56:46 10° ESE 17:03:18 80° NNE 17:09:52 10° NW
Okean 1 3.3 17:00:29 10° S 17:04:27 88° E 17:08:26 10° N
Cosmos 1484 Rocket 3.3 17:00:54 10° SE 17:04:41 41° ENE 17:08:29 10° N
USA 161 1.5 17:02:23 10° NNE 17:05:19 81° ESE 17:08:21 10° S
Cosmos 1544 Rocket 3.7 17:01:07 10° N 17:05:23 50° ENE 17:09:36 10° SSE
Cosmos 1812 4.2 17:01:50 10° SW 17:05:29 38° WNW 17:09:08 10° N
CSL-04 Debris 4.2 17:08:10 10° SSE 17:13:28 59° ENE 17:18:46 10° N
Cosmos 1428 Rocket 4.5 17:07:58 10° N 17:14:12 84° E 17:20:19 10° S
YAOGAN 1 3.4 17:11:16 10° SE 17:14:57 28° ENE 17:18:40 10° N
Meteor 2-4 Rocket 4.2 17:10:45 10° SSE 17:15:39 37° E 17:20:32 10° NNE
Cosmos 724 4.2 17:12:14 10° NNW 17:18:01 67° NE 17:23:48 10° SE
Cosmos 2263 Rocket 4.0 17:17:32 10° NNE 17:18:35 10° NNE 17:19:38 10° NE
Abrixas rocket 2.3 17:15:50 10° W 17:19:04 64° N 17:21:54 13° ENE
Cosmos 1975 3.6 17:18:08 10° NNW 17:22:08 58° W 17:26:06 10° S
CENTAUR R/B 3.6 17:16:19 10° NNW 17:23:11 35° NNE 17:30:39 10° E
Cosmos 2369 4.1 17:19:03 10° S 17:24:23 44° ESE 17:29:46 10° NE
Cosmos 2278 4.2 17:19:18 10° S 17:24:36 42° ESE 17:29:57 10° NE
Cosmos 2150 Rocket 4.5 17:21:10 10° SSW 17:26:36 67° WNW 17:32:02 10° NNE
ISS -1.2 17:25:37 10° W 17:28:20 24° SW 17:31:02 10° SSE
COSMO-SKYMED 1 3.8 17:25:34 11° NE 17:28:47 21° E 17:32:07 10° SE
CSL-04 Rocket 3.7 17:23:25 10° SSE 17:28:52 86° ENE 17:34:26 10° NNW
AQUARIUS 4.1 17:24:36 10° SSE 17:29:04 71° ENE 17:33:34 10° N
Meteor 1-13 Rocket 4.2 17:25:01 10° S 17:30:33 65° E 17:36:15 10° NNE
CZ-2C R/B 3.9 17:26:43 10° S 17:31:38 43° W 17:36:32 10° NNW
SJ 16-02 1.8 17:28:17 10° S 17:32:26 43° ESE 17:36:29 11° NNE
Meteor 1-28 Rocket 3.4 17:30:23 10° NNE 17:34:02 48° E 17:37:42 10° S
IRAS Rocket 4.3 17:28:36 10° SSE 17:34:06 86° WSW 17:39:37 10° NNW
Cosmos 2279 Rocket 4.2 17:29:13 10° SSW 17:35:29 79° W 17:41:47 10° N
Cosmos 1975 Rocket 4.1 17:32:47 10° SSW 17:37:07 48° WNW 17:41:29 10° N
Cosmos 1697 Rocket 3.4 17:35:05 10° SSE 17:40:07 34° ESE 17:44:07 15° NE
CZ-2C R/B 4.0 17:40:13 10° NNE 17:44:48 51° E 17:49:25 10° S
Meteor 1-15 Rocket 4.5 17:39:24 10° N 17:45:12 50° ENE 17:50:54 10° SSE
Cosmos 1743 3.9 17:42:02 10° NNW 17:45:47 47° W 17:49:31 10° SSW
EO 1 Del DPAF 4.4 17:46:56 21° ENE 17:47:53 23° E 17:50:59 10° SSE
SPOT 3 Rocket 3.9 17:45:28 10° SE 17:50:14 39° ENE 17:55:01 10° N
Gblst 52 Del rocket 4.2 17:45:39 10° WNW 17:51:15 82° NNE 17:57:10 11° ESE
Cosmos 2082 3.9 17:45:54 10° NNW 17:51:32 78° WSW 17:57:09 10° SSE
CZ-4 R/B 1.3 17:47:53 10° SSE 17:51:47 89° WNW 17:55:47 10° NNW
Meteor 1-19 Rocket 4.4 17:47:03 10° SSW 17:52:47 78° WNW 17:58:37 10° N
Ariane Rocket 3.4 17:47:54 10° S 17:52:55 68° WSW 17:57:59 10° NNW
Cosmos 1025 Rocket 3.7 17:51:36 10° SSE 17:55:24 32° E 17:57:14 22° NE
Cosmos 494 Rocket 4.4 17:51:28 10° N 17:56:29 41° ENE 18:01:25 10° SE
Cosmos 2251 Rocket 4.2 17:53:48 10° N 17:58:29 31° ENE 18:01:41 17° ESE
Okean 1-7 Rocket 4.4 17:57:20 10° SSE 18:01:07 29° E 18:01:53 27° ENE
SMAP 3.9 17:57:53 10° S 18:02:25 54° W 18:07:01 10° NNW
Cosmos 2227 Rocket 3.1 17:56:59 10° NW 18:02:28 51° WSW 18:07:54 10° S
Landsat 4 3.9 18:00:25 21° NNE 18:02:45 51° E 18:06:28 10° S
ERS-2 2.3 18:00:26 10° SE 18:03:58 48° ENE 18:07:31 10° N
Cosmos 1269 Rocket 4.1 17:58:53 10° NNW 18:04:14 84° WSW 18:09:31 10° SSE
Cosmos 2084 4.2 18:00:41 10° S 18:04:21 31° ESE 18:05:09 29° E
Cosmos 1536 Rocket 3.7 18:00:57 10° SSW 18:05:18 76° W 18:09:39 10° N
MONITOR-E 4.2 18:02:25 10° SSE 18:05:23 49° ENE 18:08:21 10° N
Cosmos 1125 Rocket 3.5 18:01:21 10° SSW 18:06:39 88° WNW 18:11:31 13° NNE
Gbstr 26 Del rocket 4.5 17:59:41 10° SW 18:07:38 66° SE 18:12:06 25° ENE
DNEPR-1 R/B 4.1 18:03:54 10° NNW 18:08:47 57° NE 18:14:42 10° SE
Okean 2 3.5 18:09:20 10° SSE 18:13:16 48° E 18:14:40 33° NE
Nadezhda 2 Rocket 4.4 18:09:44 10° N 18:16:04 70° E 18:22:27 10° SSE
SKYMED 2 3.5 18:14:12 20° NNE 18:17:07 66° ESE 18:21:26 10° S
ALOS 2.2 18:12:47 10° SSE 18:17:24 65° ENE 18:22:03 10° N
Cosmos 372 Rocket 4.1 18:13:26 10° SSW 18:18:37 73° WNW 18:23:00 15° NNE
Cosmos 1980 Rocket 2.5 18:16:09 10° S 18:21:28 43° ESE 18:23:14 34° ENE
NOSS 3-2 (A) 4.4 18:15:24 10° NW 18:22:50 66° WSW 18:30:56 10° SSE
MTI 3.6 18:23:20 56° NNE 18:23:57 88° E 18:27:12 10° SSW
Cosmos 2297 Rocket 3.7 18:23:36 10° NW 18:28:47 37° WSW 18:33:55 10° S
Meteor 1-23 Rocket 4.3 18:23:48 10° SSW 18:29:33 81° W 18:35:16 10° N
MOS 1 4.3 18:24:15 10° SSE 18:29:56 81° WSW 18:35:39 10° NNW
NOSS 3-2 (C) 4.2 18:23:42 10° NW 18:31:11 74° SW 18:39:22 10° SSE
Cosmos 1656 3.9 18:26:10 10° SW 18:31:42 67° WNW 18:35:34 20° NNE
ATLAS 3B R/B 4.4 18:29:01 10° NW 18:34:43 31° WSW 18:40:17 10° S
ATLAS 2AS CENTAUR R/B 3.9 18:32:35 10° WSW 18:40:08 45° NW 18:45:53 18° NNE
SL-24 R/B - RUBIN 2 4.2 18:40:11 10° SSW 18:46:19 71° ESE 18:47:41 52° ENE
NOAA 12 4.3 18:43:55 10° S 18:49:10 71° WSW 18:54:26 10° NNW
Cosmos 2227 4.1 18:43:44 10° NNW 18:49:31 74° ENE 18:51:58 36° SE
YAOGAN 1 4.4 18:47:09 10° SSW 18:50:59 31° W 18:54:51 10° NNW
Abrixas rocket 4.0 18:52:36 10° WNW 18:54:23 29° WNW 18:54:23 29° WNW
BREEZE-M DEB (TANK) 4.4 18:52:57 10° WNW 18:56:08 55° SSW 18:59:36 26° SE
S3M 3.9 18:53:04 10° S 18:59:02 60° E 18:59:20 60° E
NOSS 3-4 (A) 3.5 18:54:36 10° SW 19:00:51 80° NW 19:02:56 46° NNE
NOSS 3-4 (C) 3.5 18:54:42 10° SW 19:00:57 81° NW 19:03:00 46° NNE
Cosmos 2263 Rocket 3.3 18:58:48 10° NNW 19:01:51 29° N 19:01:51 29° N
SL-16 R/B 4.0 18:59:09 10° SSE 19:00:36 17° SSE 19:00:36 17° SSE
FENGYUN 3A 4.4 18:59:14 10° S 19:04:27 52° W 19:09:42 10° NNW
COSMO-SKYMED 1 3.8 19:02:48 22° NNW 19:05:06 40° WNW 19:09:10 10° SW
Cosmos 2322 Rocket 4.1 19:03:30 10° S 19:04:45 16° SSE 19:04:45 16° SSE
COSMOS 2455 4.2 19:04:15 10° NNW 19:07:26 25° N 19:07:26 25° N
RESURS DK-1 3.9 19:05:46 10° SSW 19:07:48 28° SSW 19:07:48 28° SSW
SJ 16-02 3.6 19:07:47 10° WSW 19:11:14 22° WNW 19:13:31 15° NNW
Cosmos 2360 4.1 19:07:36 10° SSW 19:13:20 85° WNW 19:13:53 74° N
CENTAUR R/B 3.1 19:06:55 10° NW 19:14:48 86° SW 19:19:24 31° SSE
Cosmos 1697 Rocket 3.7 19:18:40 10° SW 19:23:59 41° NW 19:25:54 31° NNW
Cosmos 1553 Rocket 4.2 19:25:41 10° SSW 19:32:04 72° W 19:34:27 41° N
Cosmos 1745 Rocket 4.3 19:36:34 10° NNW 19:42:41 64° W 19:48:51 10° S
Cosmos 1980 Rocket 3.6 20:00:26 10° WSW 20:05:04 34° WNW 20:05:04 34° WNW
